Location: Newark
(47.3833°N, 8.2167°E)
Time: 18:37:01
(UTC+00:00)

ISS - Visible Passes

Search period start: 28 September 2020 00:00
Search period end: 08 October 2020 00:00
Orbit: 419 x 421 km, 51.6° (Epoch: 29 September)

Date Brightness Start Highest point End Pass type
(mag) Time Alt. Az. Time Alt. Az. Time Alt. Az.
28 Sep -2.8 18:13:41 10° WNW 18:16:53 38° N 18:19:09 17° ENE visible
28 Sep -1.4 19:50:36 10° WNW 19:52:07 24° WNW 19:52:07 24° WNW visible
29 Sep -3.5 19:03:20 10° WNW 19:06:38 61° NNE 19:06:38 61° NNE visible
30 Sep -3.2 18:16:03 10° WNW 18:19:22 49° NNE 18:21:09 23° E visible
30 Sep -1.1 19:52:56 10° WNW 19:54:07 19° W 19:54:07 19° W visible
01 Oct -3.5 19:05:36 10° WNW 19:08:41 65° WSW 19:08:41 65° WSW visible
02 Oct -3.8 18:18:18 10° WNW 18:21:41 82° NNE 18:23:17 29° ESE visible
02 Oct -0.6 19:55:38 10° W 19:56:15 13° W 19:56:15 13° W visible
03 Oct -3.6 17:31:00 10° WNW 17:34:21 62° NNE 17:37:42 10° E visible
03 Oct -2.3 19:08:01 10° W 19:10:54 30° SW 19:10:54 30° SW visible
04 Oct -2.9 18:20:34 10° WNW 18:23:49 46° SSW 18:25:38 22° SSE visible
05 Oct -3.5 17:33:11 10° WNW 17:36:33 70° SSW 17:39:54 10° SE visible
05 Oct -1.0 19:11:14 10° WSW 19:12:51 13° SW 19:13:27 12° SW visible
06 Oct -1.4 18:23:11 10° W 18:25:43 20° SW 18:28:15 10° S visible
07 Oct -2.0 17:35:31 10° W 17:38:31 30° SW 17:41:30 10° SSE visible
